Regional Weather Roundup
Issued by NWS Charleston, WV

Home | Current Version | Previous Version | Text Only | Print | Product List | Glossary On
Versions: 1 2 3 4 5 6 7 8 9 10 11 12 13 14 15 16 17 18 19 20 21 22 23 24 25 26 27 28 29 30 31 32 33 34 35 36 37 38 39 40 41 42 43 44 45 46 47 48 49 50
770
ASUS41 KRLX 292210
RWRRLX
West Virginia Regional Weather Roundup
National Weather Service Charleston WV
600 PM EDT FRI JUL 29 2016

Note: "fair" indicates few or no clouds below 12,000 feet with no
significant weather and/or obstructions to visibility.

WVZ003-292300-
Northern Panhandle of West Virginia

CITY           SKY/WX    TMP DP  RH WIND       PRES   REMARKS
WHEELING         N/A     84  63  49 S5        29.93R
$$

WVZ009-292300-
Northwest West Virginia

CITY           SKY/WX    TMP DP  RH WIND       PRES   REMARKS
PARKERSBURG      N/A     81  71  71 CALM      29.94F
$$

WVZ006-292300-
Western West Virginia

CITY           SKY/WX    TMP DP  RH WIND       PRES   REMARKS
HUNTINGTON     PTSUNNY   84  71  65 S5        29.91S
$$

WVZ015-292300-
West Central West Virginia

CITY           SKY/WX    TMP DP  RH WIND       PRES   REMARKS
CHARLESTON       N/A     83  69  62 S6        29.93S
$$

WVZ022-031-292300-
North Central West Virginia

CITY           SKY/WX    TMP DP  RH WIND       PRES   REMARKS
CLARKSBURG     PTSUNNY   83  66  56 VRB3      29.94R
MORGANTOWN       N/A     83  66  56 VRB3      29.95S
$$

WVZ025-035-042-045-292300-
Southern West Virginia

CITY           SKY/WX    TMP DP  RH WIND       PRES   REMARKS
BECKLEY        LGT RAIN  73  68  84 N7        30.03S
LOGAN            N/A     79  72  78 CALM      29.97S
BLUEFIELD      PTSUNNY   71  66  84 SW5       30.07S
LEWISBURG        N/A     80  64  57 S3        30.01S
$$

WVZ047-292300-
Northern Mountains of West Virginia

CITY           SKY/WX    TMP DP  RH WIND       PRES   REMARKS
ELKINS           N/A     82  62  50 VRB5      29.99S
$$

WVZ052-292300-
Eastern Panhandle of West Virginia

CITY           SKY/WX    TMP DP  RH WIND       PRES   REMARKS
MARTINSBURG      N/A     88  65  46 W3        29.88F
PETERSBURG       N/A     87  67  52 CALM      29.92S
$$




USA.gov is the U.S. government's official web portal to all federal, state and local government web resources and services.